Radiation Dose measured at exhaust stack monitor of Fukushima Daiichi Nuclear Power Station
Date,Time,Unit 5 6 shared exhaust cylinders,Wind Direction,Wind Velocity(m/s)
2024/05/02,00:00,3.7,north-northeast,10.7
2024/05/02,00:10,3.7,north-northeast,10.7
2024/05/02,00:20,3.6,north-northeast,10.3
2024/05/02,00:30,3.9,north-northeast,10.5
2024/05/02,00:40,3.7,north-northeast,10.0
2024/05/02,00:50,3.7,north-northeast,10.2
2024/05/02,01:00,3.6,north-northeast,10.2
2024/05/02,01:10,3.7,north-northeast,9.9
2024/05/02,01:20,3.7,north-northeast,10.3
2024/05/02,01:30,3.6,north-northeast,10.3
2024/05/02,01:40,3.6,north-northeast,11.8
2024/05/02,01:50,3.6,north-northeast,11.0
2024/05/02,02:00,3.6,north,11.0
2024/05/02,02:10,3.8,north-northeast,9.9
2024/05/02,02:20,3.6,north-northeast,9.7
2024/05/02,02:30,3.7,north-northeast,10.8
2024/05/02,02:40,3.7,north,11.3
2024/05/02,02:50,3.7,north,10.9
2024/05/02,03:00,3.6,north-northeast,9.6
2024/05/02,03:10,3.6,north-northeast,9.8
2024/05/02,03:20,3.6,north,10.5
2024/05/02,03:30,3.5,north-northeast,10.5
2024/05/02,03:40,3.7,north,10.0
2024/05/02,03:50,3.6,north-northeast,10.3
2024/05/02,04:00,3.6,north-northeast,9.7
2024/05/02,04:10,3.5,north,8.8
2024/05/02,04:20,3.4,north-northwest,7.6
2024/05/02,04:30,3.8,north,6.7
2024/05/02,04:40,3.6,north-northwest,8.0
2024/05/02,04:50,3.8,north-northwest,7.8
2024/05/02,05:00,3.6,north-northwest,8.5
2024/05/02,05:10,3.7,north-northwest,8.2
2024/05/02,05:20,3.6,north-northwest,7.8
2024/05/02,05:30,3.5,north-northwest,8.1
2024/05/02,05:40,3.7,north-northwest,7.9
2024/05/02,05:50,3.5,north-northwest,7.7
2024/05/02,06:00,3.6,north-northwest,6.8
2024/05/02,06:10,3.6,north-northwest,7.8
2024/05/02,06:20,3.6,north-northwest,7.7
2024/05/02,06:30,3.7,north-northwest,6.7
2024/05/02,06:40,3.6,north-northwest,7.4
2024/05/02,06:50,3.7,north-northwest,6.9
2024/05/02,07:00,3.7,north-northwest,7.8
2024/05/02,07:10,3.7,north-northwest,9.1
2024/05/02,07:20,3.6,north-northwest,7.2
2024/05/02,07:30,3.7,north-northwest,7.2
2024/05/02,07:40,3.8,north,6.7
2024/05/02,07:50,3.6,north-northwest,7.1
2024/05/02,08:00,3.6,north-northwest,6.7
2024/05/02,08:10,3.5,north,8.7
2024/05/02,08:20,3.6,north,6.3
2024/05/02,08:30,3.6,north,9.3
2024/05/02,08:40,3.7,north,8.8
2024/05/02,08:50,3.6,north,9.6
2024/05/02,09:00,3.5,north,9.2
2024/05/02,09:10,3.6,north,9.3
2024/05/02,09:20,3.6,north,10.5
2024/05/02,09:30,3.4,north,9.6
2024/05/02,09:40,3.6,north,9.8
2024/05/02,09:50,3.5,north,10.7
2024/05/02,10:00,3.5,north,9.2
2024/05/02,10:10,3.7,north,8.3
2024/05/02,10:20,3.6,north,9.1
2024/05/02,10:30,3.5,north,7.9
2024/05/02,10:40,3.7,north,9.3
2024/05/02,10:50,3.7,north-northeast,7.2
2024/05/02,11:00,3.7,north-northeast,8.0
2024/05/02,11:10,3.7,north-northeast,7.7
2024/05/02,11:20,3.7,north,7.8
2024/05/02,11:30,3.7,north,7.6
2024/05/02,11:40,3.6,north-northeast,7.6
2024/05/02,11:50,3.7,north-northeast,8.8
2024/05/02,12:00,3.6,north-northeast,7.6
2024/05/02,12:10,3.5,north,9.1
2024/05/02,12:20,3.6,north-northeast,9.3
2024/05/02,12:30,3.7,north-northeast,7.5
2024/05/02,12:40,3.5,north-northeast,8.0
2024/05/02,12:50,3.6,north-northeast,8.1
2024/05/02,13:00,3.6,north-northeast,7.8
2024/05/02,13:10,3.6,north-northeast,7.6
2024/05/02,13:20,3.7,north-northeast,7.5
2024/05/02,13:30,3.6,north,8.9
2024/05/02,13:40,3.6,north-northeast,8.3
2024/05/02,13:50,3.6,north-northeast,7.7
2024/05/02,14:00,3.7,north-northeast,8.2
2024/05/02,14:10,3.6,north-northeast,7.3
2024/05/02,14:20,3.7,north-northeast,6.7
2024/05/02,14:30,3.7,north-northeast,7.4
2024/05/02,14:40,3.6,north-northeast,6.7
2024/05/02,14:50,3.7,north-northeast,6.0
2024/05/02,15:00,3.6,north-northeast,5.7
2024/05/02,15:10,3.6,north-northeast,6.0
2024/05/02,15:20,3.7,north-northeast,5.6
2024/05/02,15:30,3.5,north-northeast,5.2
2024/05/02,15:40,3.7,northeast,4.8
2024/05/02,15:50,3.8,north-northeast,5.4
2024/05/02,16:00,3.5,northeast,5.2
2024/05/02,16:10,3.7,north-northeast,4.7
2024/05/02,16:20,3.6,northeast,4.2
2024/05/02,16:30,3.6,northeast,4.0
2024/05/02,16:40,3.7,northeast,4.0
2024/05/02,16:50,3.7,north-northeast,3.8
2024/05/02,17:00,3.5,northeast,3.2
2024/05/02,17:10,3.6,northeast,2.5
2024/05/02,17:20,3.7,east-northeast,2.3
2024/05/02,17:30,3.4,east-northeast,2.3
2024/05/02,17:40,3.8,east-northeast,1.1
2024/05/02,17:50,3.6,east-northeast,1.7
2024/05/02,18:00,3.8,northeast,1.2
2024/05/02,18:10,3.6,east-northeast,0.8
2024/05/02,18:20,3.7,east-southeast,1.5
2024/05/02,18:30,3.6,east-southeast,1.4
2024/05/02,18:40,3.6,east,1.1
2024/05/02,18:50,3.7,southeast,1.7
2024/05/02,19:00,3.6,southeast,1.5
2024/05/02,19:10,3.8,southeast,1.7
2024/05/02,19:20,3.7,southeast,1.7
2024/05/02,19:30,3.5,south,1.7
2024/05/02,19:40,3.6,south,1.9
2024/05/02,19:50,3.8,south,2.0
2024/05/02,20:00,3.5,south-southwest,2.3
2024/05/02,20:10,3.7,south-southwest,2.6
2024/05/02,20:20,3.7,south-southwest,2.6
2024/05/02,20:30,3.6,south-southwest,2.6
2024/05/02,20:40,3.7,south-southwest,2.5
2024/05/02,20:50,3.7,south-southwest,3.0
2024/05/02,21:00,3.8,southwest,3.1
2024/05/02,21:10,3.5,south-southwest,3.2
2024/05/02,21:20,3.7,south-southwest,2.8
2024/05/02,21:30,3.6,south-southwest,2.8
2024/05/02,21:40,3.6,south-southwest,2.0
2024/05/02,21:50,3.6,south,2.0
2024/05/02,22:00,3.6,south,4.5
2024/05/02,22:10,3.7,south,4.9
2024/05/02,22:20,3.7,south,4.0
2024/05/02,22:30,3.6,south,4.2
2024/05/02,22:40,3.8,south,5.0
2024/05/02,22:50,3.5,south,5.4
2024/05/02,23:00,3.5,south,5.6
2024/05/02,23:10,3.7,south,5.9
2024/05/02,23:20,3.6,south,6.4
2024/05/02,23:30,3.6,south,6.6
2024/05/02,23:40,3.7,south,6.8
2024/05/02,23:50,3.6,south,6.3
